CW4352 Weather Reports


Display with metric or nautical units.
time (UTC)temp
F
wind
direction
speed
MPH
gust
MPH
rain 1hr
in
rain 24hr
in
rain mn
in
humidity
%
barometer
mb
20260905053204 69 355 1.0 3.0 0.00 0.00 0.00 50 1011.6
20260905051204 69 355 0.0 2.0 0.00 0.00 0.00 54 1011.2
20260905050704 69 355 0.0 2.0 0.00 0.00 0.00 53 1011.2
20260905043204 69 355 1.0 2.0 0.00 0.00 0.00 51 1011.1
20260905040204 69 355 0.0 2.0 0.00 0.00 0.00 53 1011.1
20260905034704 69 355 0.0 2.0 0.00 0.00 0.00 54 1011.1
20260905034203 69 355 0.0 2.0 0.00 0.00 0.00 54 1011.1
20260905033704 70 355 0.0 1.0 0.00 0.00 0.00 53 1011.1
20260905033204 70 355 0.0 1.0 0.00 0.00 0.00 52 1011.1
20260905031704 71 355 1.0 3.0 0.00 0.00 0.00 51 1011.1
20260905030704 71 355 1.0 3.0 0.00 0.00 0.00 50 1011.1
20260905030203 71 355 1.0 3.0 0.00 0.00 0.00 49 1011.1
20260905024704 72 355 2.0 3.0 0.00 0.00 0.00 48 1011.1
20260905014704 70 355 1.0 3.0 0.00 0.00 0.00 51 1011.4
20260905013204 71 355 1.0 3.0 0.00 0.00 0.00 52 1011.6
20260905011704 71 355 1.0 2.0 0.00 0.00 0.00 53 1011.6
20260905004704 72 355 1.0 3.0 0.00 0.00 0.00 50 1011.6
20260905004204 72 355 2.0 3.0 0.00 0.00 0.00 51 1011.6
20260905003704 72 355 1.0 3.0 0.00 0.00 0.00 51 1011.6
20260905003204 72 355 1.0 3.0 0.00 0.00 0.00 50 1011.6
20260905000704 75 355 0.0 2.0 0.00 0.00 0.00 48 1011.6
20260904234704 76 355 0.0 1.0 0.00 0.00 0.00 44 1011.7
20260904231705 77 5 1.0 3.0 0.00 0.00 0.00 40 1011.7
20260904231203 77 5 1.0 5.0 0.00 0.00 0.00 41 1011.7
20260904224704 77 5 0.0 1.0 0.00 0.00 0.00 40 1011.9
20260904223204 77 5 2.0 5.0 0.00 0.00 0.00 42 1012.0
20260904221703 78 5 1.0 2.0 0.00 0.00 0.00 46 1012.3
20260904221204 78 5 0.0 1.0 0.00 0.00 0.00 45 1012.3
20260904220705 79 5 0.0 0.0 0.00 0.00 0.00 45 1012.3
20260904220204 79 5 0.0 3.0 0.00 0.00 0.00 43 1012.3
20260904213704 80 5 0.0 1.0 0.00 0.00 0.00 38 1012.3
20260904211704 79 5 0.0 2.0 0.00 0.00 0.00 35 1012.3
20260904204204 80 5 1.0 3.0 0.00 0.00 0.00 35 1012.4
20260904203704 81 5 2.0 3.0 0.00 0.00 0.00 33 1012.4
20260904203204 81 5 1.0 2.0 0.00 0.00 0.00 32 1012.4
20260904201704 83 5 1.0 2.0 0.00 0.00 0.00 28 1012.4
20260904200703 84 5 2.0 3.0 0.00 0.00 0.00 27 1012.4
20260904200204 84 5 2.0 3.0 0.00 0.00 0.00 26 1012.4
20260904194204 84 5 2.0 3.0 0.00 0.00 0.00 27 1012.3
20260904193704 84 9 1.0 3.0 0.00 0.00 0.00 29 1012.3
20260904193203 84 9 1.0 3.0 0.00 0.00 0.00 32 1012.3
20260904191703 84 9 1.0 3.0 0.00 0.00 0.00 35 1012.3
20260904191203 84 9 1.0 2.0 0.00 0.00 0.00 34 1012.0
20260904190703 84 9 1.0 2.0 0.00 0.00 0.00 35 1012.0
20260904184704 85 9 1.0 2.0 0.00 0.00 0.00 39 1012.0
20260904183703 86 9 0.0 2.0 0.00 0.00 0.00 39 1012.0
20260904181203 88 9 1.0 3.0 0.00 0.00 0.00 35 1011.6
20260904174705 90 9 1.0 2.0 0.00 0.00 0.00 32 1011.6
20260904174205 91 9 1.0 2.0 0.00 0.00 0.00 31 1011.6
20260904171705 93 9 0.0 2.0 0.00 0.00 0.00 29 1011.6
20260904170705 93 9 2.0 3.0 0.00 0.00 0.00 29 1011.6
20260904164706 93 9 1.0 3.0 0.00 0.00 0.00 27 1011.6
20260904164205 94 5 2.0 3.0 0.00 0.00 0.00 28 1011.9
20260904160206 94 5 2.0 5.0 0.00 0.00 0.00 27 1011.9
20260904154205 94 19 2.0 6.0 0.00 0.00 0.00 28 1012.0
20260904153205 94 334 2.0 8.0 0.00 0.00 0.00 28 1012.0
20260904151705 95 23 2.0 3.0 0.00 0.00 0.00 27 1011.9
20260904143705 95 343 3.0 8.0 0.00 0.00 0.00 28 1012.1
20260904141205 95 23 2.0 3.0 0.00 0.00 0.00 28 1012.5
20260904140706 95 24 2.0 7.0 0.00 0.00 0.00 28 1012.5
20260904134205 94 355 2.0 3.0 0.00 0.00 0.00 28 1012.5
20260904130706 94 17 2.0 6.0 0.00 0.00 0.00 28 1012.8
20260904124706 94 28 1.0 5.0 0.00 0.00 0.00 29 1013.3
20260904124205 94 28 2.0 3.0 0.00 0.00 0.00 29 1013.3
20260904123705 93 44 2.0 6.0 0.00 0.00 0.00 31 1013.3
20260904123206 93 38 2.0 5.0 0.00 0.00 0.00 30 1013.3
20260904121706 92 14 3.0 7.0 0.00 0.00 0.00 32 1013.3
20260904120705 92 26 2.0 5.0 0.00 0.00 0.00 31 1013.6
20260904114706 92 51 1.0 3.0 0.00 0.00 0.00 33 1013.6
20260904113205 91 21 2.0 6.0 0.00 0.00 0.00 33 1013.9
20260904110205 90 22 2.0 6.0 0.00 0.00 0.00 34 1014.2
20260904104705 90 358 2.0 3.0 0.00 0.00 0.00 34 1014.2
20260904104205 90 27 2.0 5.0 0.00 0.00 0.00 34 1014.2
20260904103205 90 13 2.0 3.0 0.00 0.00 0.00 35 1014.5
20260904101705 89 37 1.0 5.0 0.00 0.00 0.00 37 1014.5
20260904101205 89 27 1.0 5.0 0.00 0.00 0.00 37 1014.5
20260904100705 89 22 2.0 3.0 0.00 0.00 0.00 37 1014.5
20260904100205 89 19 1.0 7.0 0.00 0.00 0.00 37 1014.5
20260904094706 88 45 2.0 3.0 0.00 0.00 0.00 36 1014.5
20260904094205 88 38 2.0 3.0 0.00 0.00 0.00 37 1014.8
20260904093205 87 38 3.0 5.0 0.00 0.00 0.00 38 1014.8
20260904091705 86 5 2.0 3.0 0.00 0.00 0.00 39 1014.8
20260904091206 86 5 1.0 3.0 0.00 0.00 0.00 39 1014.8
20260904084706 87 11 1.0 3.0 0.00 0.00 0.00 39 1014.8
20260904083205 87 311 1.0 5.0 0.00 0.00 0.00 37 1014.8
20260904081705 86 263 1.0 3.0 0.00 0.00 0.00 38 1014.6
20260904080205 85 263 1.0 3.0 0.00 0.00 0.00 39 1014.6
20260904074205 83 263 1.0 3.0 0.00 0.00 0.00 42 1014.6
20260904071707 80 263 0.0 2.0 0.00 0.00 0.00 46 1014.3
20260904071205 80 263 0.0 2.0 0.00 0.00 0.00 46 1014.3
20260904070704 79 263 1.0 3.0 0.00 0.00 0.00 48 1014.3
20260904070205 79 263 0.0 5.0 0.00 0.00 0.00 48 1014.6
20260904064705 77 263 2.0 3.0 0.00 0.00 0.00 50 1014.6
20260904064204 77 263 2.0 5.0 0.00 0.00 0.00 50 1014.6
20260904063705 77 263 2.0 3.0 0.00 0.00 0.00 50 1014.6
20260904063205 76 263 3.0 6.0 0.00 0.00 0.00 50 1014.6
20260904061205 74 263 2.0 6.0 0.00 0.00 0.00 54 1014.6
20260904060705 73 263 2.0 5.0 0.00 0.00 0.00 57 1014.6
20260904053705 72 263 0.0 2.0 0.00 0.00 0.00 60 1014.2